This is the latest recevied weather packets stored in our database for station/object SP3SWJ-13. If no packets are shown the sender has not sent any weather packets the latest 10 day(s).
| Time | Temp. | Humidity | Pressure | Rain* | Wind** | Luminosity | Snow |
|---|---|---|---|---|---|---|---|
| 1778054055 | 13.89° C | 69% | 995.4 hPa | - | - | 484 W/m² | - |
| 1778053754 | 13.33° C | 71% | 995.6 hPa | - | - | 481 W/m² | - |
| 1778053454 | 13.33° C | 74% | 995.7 hPa | - | - | 102 W/m² | - |
| 1778053153 | 13.33° C | 72% | 995.6 hPa | - | - | 159 W/m² | - |
| 1778052852 | 12.78° C | 76% | 995.5 hPa | - | - | 344 W/m² | - |
| 1778052551 | 12.78° C | 76% | 995.6 hPa | - | - | 149 W/m² | - |
| 1778052250 | 12.78° C | 78% | 995.6 hPa | - | - | 119 W/m² | - |
| 1778051949 | 12.22° C | 78% | 995.9 hPa | - | - | 80 W/m² | - |
| 1778051649 | 12.22° C | 79% | 995.8 hPa | - | - | 121 W/m² | - |
| 1778051347 | 12.78° C | 77% | 995.9 hPa | - | - | 161 W/m² | - |
| 1778051046 | 12.22° C | 78% | 995.7 hPa | - | - | 196 W/m² | - |
| 1778050745 | 12.22° C | 79% | 995.6 hPa | - | - | 171 W/m² | - |
| 1778050444 | 11.67° C | 81% | 995.5 hPa | - | - | 169 W/m² | - |
| 1778050143 | 11.67° C | 82% | 995.5 hPa | - | - | 126 W/m² | - |
| 1778049843 | 11.67° C | 82% | 995.4 hPa | - | - | 73 W/m² | - |
| 1778049542 | 11.67° C | 83% | 995.4 hPa | - | - | 72 W/m² | - |
| 1778049241 | 11.67° C | 83% | 995.3 hPa | - | - | 50 W/m² | - |
| 1778048940 | 11.67° C | 81% | 995.3 hPa | - | - | 49 W/m² | - |
| 1778048639 | 11.67° C | 81% | 995.4 hPa | - | - | 36 W/m² | - |
| 1778048338 | 11.67° C | 81% | 995.4 hPa | - | - | 26 W/m² | - |
| 1778048037 | 11.67° C | 81% | 995.5 hPa | - | - | 35 W/m² | - |
| 1778047736 | 11.67° C | 81% | 995.5 hPa | - | - | 50 W/m² | - |
| 1778047435 | 11.67° C | 81% | 995.5 hPa | - | - | 64 W/m² | - |
| 1778047134 | 11.67° C | 81% | 995.5 hPa | - | - | 51 W/m² | - |
| 1778046833 | 11.67° C | 81% | 995.5 hPa | - | - | 43 W/m² | - |
* Rain since midnight (hover to see other rain measurements)
** Current wind speed in m/s (hover to see current wind gust speed)